sat.trackr.live / text

‹ back to catalog

STARLINK-31885

NORAD 59660 · 2024-084G

PAYLOAD ACTIVE UNKNOWN

§ Identity

Operator
Country
US
Launch date
2024-05-06
Launch site
AFETR
Launch vehicle
Mass (kg)
RCS (m²)

Purposes: comms

External: N2YO · Heavens-Above · Gunter

§ Orbital elements

Epoch: 2026-09-21T14:14:57.614496Z

Period
94.27 min
Inclination
43.0021°
Eccentricity
0.0001297
Mean motion
15.27583630 rev/d
Perigee alt
482.1 km
Apogee alt
483.9 km
Semi-major
6,861.2 km
B*
1.0074e-5
RAAN
12.0195°
Arg perigee
276.4446°
Mean anomaly
83.6258°
Rev number
13,437

§ Raw data

STARLINK-318851 59660U 24084G   26264.59372239  .00000015  00000+0  10074-4 0  99952 59660  43.0021  12.0195 0001297 276.4446  83.6258 15.27583630134378

JSON: /api/v1/satellites/59660 · /tle

For live sub-satellite position, see the globe view (requires WebGL).

§ Visibility from observer

Set your observer location to see the next 7 days of passes ≥ 10°. The values pass through the URL so the page stays shareable.

No JS? Fill the form by hand. The geolocation button needs JavaScript.